Date,TemperatureHighF,TemperatureAvgF,TemperatureLowF,DewpointHighF,DewpointAvgF,DewpointLowF,HumidityHigh,HumidityAvg,HumidityLow,PressureMaxIn,PressureMinIn,WindSpeedMaxMPH,WindSpeedAvgMPH,GustSpeedMaxMPH,PrecipitationSumIn
2013-1-1,77,73,68,65,62,59,80,69,62,30.10,29.96,9,1,19,0.00
2013-1-2,79,71,62,69,65,60,95,83,69,30.00,29.90,8,1,15,0.00
2013-1-3,79,73,67,70,68,65,95,85,71,30.03,29.93,9,0,17,0.02
2013-1-4,79,72,67,72,69,65,96,89,75,30.13,30.01,7,0,12,0.00
2013-1-5,76,70,67,70,68,65,97,94,82,30.15,30.06,7,0,11,0.16
2013-1-6,80,74,67,72,70,66,97,88,78,30.09,29.97,9,1,16,0.01
2013-1-7,75,71,68,70,68,66,96,92,84,30.07,29.97,2,0,14,0.45
2013-1-8,81,76,72,74,72,70,94,87,80,30.10,29.97,6,1,18,0.28
2013-1-9,80,77,75,73,72,70,92,83,78,30.18,30.06,11,2,20,0.00
2013-1-10,79,76,75,70,68,65,82,75,65,30.20,30.09,13,3,20,0.00
2013-1-11,79,76,74,70,69,67,83,79,73,30.15,30.06,12,2,18,0.00
2013-1-12,79,75,73,70,68,66,87,79,72,30.08,30.00,11,2,15,0.01
2013-1-13,79,76,73,69,67,65,81,75,66,30.02,29.97,11,2,16,0.00
2013-1-14,78,75,72,68,66,63,81,73,66,30.07,30.01,9,1,15,0.00
2013-1-15,77,75,72,69,67,64,82,78,74,30.01,29.73,8,1,14,0.00
2013-1-16,79,74,66,71,68,63,92,80,71,29.78,29.68,8,1,18,0.08
2013-1-17,79,70,61,72,67,56,97,89,78,29.72,29.61,17,1,27,0.67
2013-1-18,71,63,52,62,54,47,84,74,64,29.84,29.72,11,2,21,0.00
2013-1-19,72,68,64,68,64,60,96,87,69,29.81,29.68,5,0,12,0.61
2013-1-20,77,70,64,70,67,63,98,90,75,29.69,29.55,5,0,12,0.02
2013-1-21,78,72,66,71,68,65,97,88,77,29.54,29.42,8,0,14,0.01
2013-1-22,75,68,62,64,60,54,95,76,59,29.59,29.41,14,3,21,0.00
2013-1-23,73,68,62,59,56,53,82,65,53,29.63,29.55,7,1,17,0.00
2013-1-24,74,66,60,58,54,48,85,68,51,29.55,29.45,7,1,14,0.00
2013-1-25,75,67,60,62,56,51,81,69,56,29.48,28.51,4,0,15,0.00
2013-1-26,76,68,60,62,59,53,92,74,58,28.48,28.21,8,1,13,0.00
2013-1-27,76,71,64,65,62,59,88,75,60,28.27,28.19,12,2,16,0.00
2013-1-28,78,75,72,67,65,63,79,72,65,28.23,28.15,11,2,18,0.00
2013-1-29,78,74,73,70,68,66,84,80,77,28.14,28.05,10,2,20,0.00
2013-1-30,78,74,72,69,67,64,89,78,71,28.04,27.89,17,3,23,0.00
2013-1-31,72,67,60,70,60,42,96,80,50,28.04,27.84,9,2,25,0.00